map of YYQ home
YYQ - Airport
Location
City:  Churchill, Manitoba, Canada
Name:Churchill Airport
ICAO:CYYQ
IATA:YYQ

Details
Type:Airport (Airfield)
Use:Public/Civil
Latitude:5844'21"N (58.739167)
Longitude:9403'59"W (-94.066388)
Elevation:96 ft (29 m)
Variation:2.07W (WMM2015 magnetic declination)
0.01 annual change
Runways:2
Longest:9195 ft (2803 m), paved

Time
Time Zone:UTC-6 (DST-5)
Local Time:

Weather
METAR:CYYQ 251700Z 29003KT 15SM SCT270 M25/M27 A2981 RMK CI4 SLP099
TAF:CYYQ 251741Z 2518/2618 29005KT P6SM IC SCT270
BECMG 2601/2603 35008KT
FM261200 35015KT 5SM IC BR BKN020 OVC060
BECMG 2616/2618 34015G25KT
RMK NXT FCST BY 260000Z

Related Locations
Nearby:
Farthest:YWKS: 11462 mi / 18447 km
Wilkins Runway (Casey), Upper Peterson Glacier, AQ

Find:

   beyond  
but within

Other Information
Maps:
NOTAMs:
Links:
Sources:

  
flag of Canada
flag of Manitoba
  

Airport Diagram

Airport diagram for YYQ

Airport diagram PDF

Sectional Chart

Flight Planning
at skyvector.com

Satellite Image

Google Maps Satellite view

 

Copyright © 2004-2017 Karl L. Swartz. All rights reserved.
The Great Circle Mapper name and logo are trademarks of the Great Circle Mapper.
All other trademarks mentioned herein belong to their respective owners.
Please see credits for attibutions and further copyright information.

  Follow gcmap on Facebook Follow gcmap on Twitter Follow gcmap on Google+ GCmap on LinkedIn

hCard Microformat

Geo Microformat